• In Hungary
  • List of Countries
  • For 7 days
  • Water Temperature
  • Satellite Maps
  • Weather Map
  • News
  • Weather Widgets
  • user-avatar
    Login

    Hourly Weather Córdoba

    Today, 21 October, Sunday

    Time Temperature Precipitation Wind Pressure Humidity
    00:00 +18°C° 0 mm 1 mps 724 mmHg 84%
    01:00 +18°C° 0 mm 1 mps 724 mmHg 83%
    02:00 +18°C° 0 mm 1 mps 723 mmHg 82%
    03:00 +18°C° 0 mm 1 mps 723 mmHg 81%
    04:00 +18°C° 0 mm 1 mps 723 mmHg 81%
    05:00 +18°C° 0 mm 1 mps 723 mmHg 80%
    06:00 +19°C° 0 mm 1 mps 723 mmHg 77%
    07:00 +19°C° 0 mm 2 mps 723 mmHg 74%
    08:00 +20°C° 0 mm 2 mps 723 mmHg 71%
    09:00 +21°C° 0 mm 3 mps 723 mmHg 68%
    10:00 +22°C° 0 mm 3 mps 723 mmHg 65%
    11:00 +24°C° 0 mm 3 mps 723 mmHg 63%
    12:00 +25°C° 0 mm 4 mps 723 mmHg 60%
    13:00 +26°C° 0 mm 4 mps 723 mmHg 58%
    14:00 +27°C° 0 mm 4 mps 722 mmHg 56%
    15:00 +26°C° 0 mm 4 mps 722 mmHg 59%
    16:00 +26°C° 0 mm 4 mps 721 mmHg 61%
    17:00 +25°C° 0 mm 4 mps 721 mmHg 63%
    18:00 +24°C° 0 mm 3 mps 721 mmHg 70%
    19:00 +23°C° 0 mm 2 mps 722 mmHg 76%
    20:00 +21°C° 0 mm 1 mps 722 mmHg 82%
    21:00 +21°C° 0 mm 1 mps 722 mmHg 83%
    22:00 +21°C° 0 mm 1 mps 722 mmHg 85%
    23:00 +20°C° 0 mm 1 mps 723 mmHg 86%

    Tomorrow, 22 October, Monday

    Time Temperature Precipitation Wind Pressure Humidity
    00:00 +20°C° 0.1 mm 1 mps 722 mmHg 86%
    01:00 +20°C° 0.1 mm 1 mps 722 mmHg 87%
    02:00 +20°C° 0.1 mm 1 mps 722 mmHg 88%
    03:00 +20°C° 0.1 mm 1 mps 722 mmHg 88%
    04:00 +20°C° 0.1 mm 1 mps 722 mmHg 88%
    05:00 +20°C° 0.1 mm 1 mps 722 mmHg 88%
    06:00 +19°C° 0.2 mm 2 mps 722 mmHg 88%
    07:00 +19°C° 0.2 mm 2 mps 723 mmHg 87%
    08:00 +19°C° 0.2 mm 2 mps 723 mmHg 86%
    09:00 +19°C° 0.5 mm 2 mps 723 mmHg 86%
    10:00 +19°C° 0.5 mm 3 mps 723 mmHg 86%
    11:00 +19°C° 0.5 mm 3 mps 723 mmHg 85%
    12:00 +19°C° 0.4 mm 3 mps 723 mmHg 86%
    13:00 +18°C° 0.4 mm 3 mps 723 mmHg 87%
    14:00 +18°C° 0.4 mm 3 mps 722 mmHg 88%
    15:00 +18°C° 0.3 mm 3 mps 722 mmHg 88%
    16:00 +18°C° 0.3 mm 3 mps 722 mmHg 88%
    17:00 +18°C° 0.3 mm 3 mps 722 mmHg 87%
    18:00 +18°C° 0.1 mm 3 mps 723 mmHg 88%
    19:00 +18°C° 0.1 mm 3 mps 723 mmHg 89%
    20:00 +18°C° 0.1 mm 3 mps 724 mmHg 90%
    21:00 +18°C° 0.2 mm 3 mps 724 mmHg 90%
    22:00 +18°C° 0.2 mm 4 mps 725 mmHg 91%
    23:00 +18°C° 0.2 mm 4 mps 725 mmHg 92%

    Day after tomorrow, 23 October, Tuesday

    Time Temperature Precipitation Wind Pressure Humidity
    00:00 +17°C° 0.5 mm 4 mps 725 mmHg 91%
    01:00 +17°C° 0.5 mm 4 mps 725 mmHg 91%
    02:00 +16°C° 0.5 mm 5 mps 725 mmHg 90%
    03:00 +15°C° 0.7 mm 5 mps 725 mmHg 90%
    04:00 +15°C° 0.7 mm 5 mps 725 mmHg 89%
    05:00 +15°C° 0.7 mm 5 mps 725 mmHg 89%
    06:00 +14°C° 0.4 mm 5 mps 725 mmHg 89%
    07:00 +14°C° 0.4 mm 4 mps 726 mmHg 89%
    08:00 +14°C° 0.4 mm 4 mps 726 mmHg 88%
    09:00 +14°C° 0.1 mm 4 mps 726 mmHg 87%
    10:00 +14°C° 0.1 mm 3 mps 726 mmHg 85%
    11:00 +14°C° 0.1 mm 3 mps 726 mmHg 83%
    12:00 +16°C° 0 mm 3 mps 725 mmHg 80%
    13:00 +17°C° 0 mm 3 mps 725 mmHg 77%
    14:00 +18°C° 0 mm 2 mps 724 mmHg 74%
    15:00 +18°C° 0 mm 2 mps 724 mmHg 73%
    16:00 +18°C° 0 mm 2 mps 723 mmHg 72%
    17:00 +19°C° 0 mm 2 mps 723 mmHg 71%
    18:00 +18°C° 0 mm 2 mps 723 mmHg 74%
    19:00 +18°C° 0 mm 2 mps 723 mmHg 77%
    20:00 +17°C° 0 mm 2 mps 724 mmHg 80%
    21:00 +17°C° 0.5 mm 2 mps 724 mmHg 82%
    22:00 +17°C° 0.5 mm 2 mps 724 mmHg 84%
    23:00 +17°C° 0.5 mm 2 mps 724 mmHg 85%

    24 October, Wednesday

    Time Temperature Precipitation Wind Pressure Humidity
    00:00 +16°C° 0.6 mm 2 mps 724 mmHg 87%
    01:00 +16°C° 0.6 mm 2 mps 723 mmHg 88%
    02:00 +16°C° 0.6 mm 2 mps 723 mmHg 89%
    03:00 +15°C° 0.2 mm 2 mps 723 mmHg 89%
    04:00 +15°C° 0.2 mm 1 mps 723 mmHg 90%
    05:00 +15°C° 0.2 mm 1 mps 722 mmHg 90%
    06:00 +16°C° 0.1 mm 1 mps 723 mmHg 89%
    07:00 +16°C° 0.1 mm 1 mps 723 mmHg 87%
    08:00 +18°C° 0.1 mm 1 mps 723 mmHg 86%
    09:00 +18°C° 0 mm 2 mps 723 mmHg 83%
    10:00 +19°C° 0 mm 2 mps 723 mmHg 80%
    11:00 +20°C° 0 mm 2 mps 723 mmHg 78%
    12:00 +20°C° 0 mm 2 mps 723 mmHg 76%
    13:00 +21°C° 0 mm 2 mps 722 mmHg 75%
    14:00 +21°C° 0 mm 2 mps 722 mmHg 73%
    15:00 +21°C° 0 mm 3 mps 722 mmHg 74%
    16:00 +21°C° 0 mm 3 mps 721 mmHg 75%
    17:00 +21°C° 0 mm 3 mps 721 mmHg 76%
    18:00 +20°C° 0 mm 3 mps 722 mmHg 80%
    19:00 +19°C° 0 mm 3 mps 722 mmHg 84%
    20:00 +18°C° 0 mm 2 mps 723 mmHg 88%
    21:00 +18°C° 0 mm 2 mps 723 mmHg 89%
    22:00 +18°C° 0 mm 2 mps 723 mmHg 90%
    23:00 +17°C° 0 mm 2 mps 724 mmHg 90%

    25 October, Thursday

    Time Temperature Precipitation Wind Pressure Humidity
    00:00 +17°C° 0 mm 2 mps 723 mmHg 91%
    01:00 +17°C° 0 mm 2 mps 723 mmHg 92%
    02:00 +16°C° 0 mm 1 mps 723 mmHg 92%
    03:00 +16°C° 0 mm 1 mps 723 mmHg 93%
    04:00 +16°C° 0 mm 1 mps 723 mmHg 94%
    05:00 +15°C° 0 mm 1 mps 723 mmHg 95%
    06:00 +18°C° 0 mm 1 mps 723 mmHg 89%
    07:00 +18°C° 0 mm 2 mps 723 mmHg 83%
    08:00 +19°C° 0 mm 2 mps 724 mmHg 77%
    09:00 +21°C° 0 mm 2 mps 724 mmHg 71%
    10:00 +23°C° 0 mm 2 mps 724 mmHg 66%
    11:00 +25°C° 0 mm 3 mps 724 mmHg 60%
    12:00 +25°C° 0.2 mm 3 mps 723 mmHg 61%
    13:00 +25°C° 0.2 mm 3 mps 723 mmHg 61%
    14:00 +25°C° 0.2 mm 3 mps 723 mmHg 61%
    15:00 +25°C° 0.2 mm 3 mps 722 mmHg 63%
    16:00 +25°C° 0.2 mm 2 mps 722 mmHg 64%
    17:00 +24°C° 0.2 mm 2 mps 722 mmHg 66%
    18:00 +23°C° 0.1 mm 2 mps 722 mmHg 71%
    19:00 +22°C° 0.1 mm 1 mps 723 mmHg 75%
    20:00 +21°C° 0.1 mm 1 mps 723 mmHg 80%
    21:00 +21°C° 0 mm 1 mps 724 mmHg 81%
    22:00 +21°C° 0 mm 1 mps 724 mmHg 81%
    23:00 +21°C° 0 mm 1 mps 724 mmHg 81%

    26 October, Friday

    Time Temperature Precipitation Wind Pressure Humidity
    00:00 +20°C° 0 mm 1 mps 724 mmHg 82%
    01:00 +20°C° 0 mm 1 mps 724 mmHg 83%
    02:00 +20°C° 0 mm 1 mps 723 mmHg 84%
    03:00 +19°C° 0 mm 1 mps 723 mmHg 84%
    04:00 +19°C° 0 mm 1 mps 723 mmHg 85%
    05:00 +19°C° 0 mm 1 mps 723 mmHg 85%
    06:00 +20°C° 0 mm 1 mps 724 mmHg 80%
    07:00 +21°C° 0 mm 1 mps 724 mmHg 74%
    08:00 +21°C° 0 mm 2 mps 725 mmHg 69%
    09:00 +23°C° 0 mm 2 mps 725 mmHg 65%
    10:00 +25°C° 0 mm 3 mps 724 mmHg 61%
    11:00 +26°C° 0 mm 4 mps 724 mmHg 58%
    12:00 +26°C° 0.1 mm 4 mps 723 mmHg 56%
    13:00 +27°C° 0.1 mm 5 mps 723 mmHg 55%
    14:00 +27°C° 0.1 mm 5 mps 722 mmHg 53%
    15:00 +27°C° 0.1 mm 5 mps 722 mmHg 53%
    16:00 +27°C° 0.1 mm 5 mps 721 mmHg 54%
    17:00 +27°C° 0.1 mm 5 mps 721 mmHg 54%
    18:00 +25°C° 0 mm 4 mps 721 mmHg 57%
    19:00 +24°C° 0 mm 3 mps 721 mmHg 60%
    20:00 +21°C° 0 mm 2 mps 721 mmHg 63%
    21:00 +21°C° 0 mm 3 mps 721 mmHg 63%
    22:00 +21°C° 0 mm 3 mps 721 mmHg 63%
    23:00 +20°C° 0 mm 3 mps 721 mmHg 63%
    Show more